Morris, MN

9:59 PM CST on February 10, 2016 (GMT -0600)
Morris Municipal

Weather History for KMOX - August, 2013

Change the Weather History Date:

Monday, August 26, 2013

  Actual Average Record
Temperature  
Mean Temperature 81 °F -  
Max Temperature 91 °F 76 °F 91 °F (2013)
Min Temperature 71 °F 54 °F 42 °F (2015)
Cooling Degree Days 16    
Growing Degree Days 31 (Base 50)    
Moisture  
Dew Point 74 °F    
Average Humidity 78    
Maximum Humidity 100    
Minimum Humidity 55    
Precipitation  
Precipitation 0.00 in - - ()
Sea Level Pressure  
Sea Level Pressure 29.88 in    
Wind  
Wind Speed 7 mph (SSE)    
Max Wind Speed 15 mph    
Max Gust Speed 22 mph    
Visibility 9 miles    
Events Thunderstorm    
Averages and records for this station are not official NWS values.
T = Trace of Precipitation, MM = Missing Value Source: NWS Daily Summary

Daily Weather History Graph

Daily Weather History Graph

Search for Another Location

Airport or City:

Trip Planner

Search our weather history database for the weather conditions in past years. The results will help you decide how hot, cold, wet, or windy it might be!

Date:

Astronomy

Aug. 26, 2013 Rise Set
Actual Time 6:38 AM CDT 8:12 PM CDT
Civil Twilight 6:07 AM CDT 8:43 PM CDT
Nautical Twilight 5:29 AM CDT 9:20 PM CDT
Astronomical Twilight 4:48 AM CDT 10:01 PM CDT
Moon 11:02 PM CDT (8/26) 1:01 PM CDT (8/26)
Length of Visible Light 14h 36m
Length of Day
13h 33m
Waning Gibbous, 66% of the Moon is Illuminated
Aug 26
Waning Gibbous
Aug 28
Last Quarter
Sep 5
New
Sep 12
First Quarter
Sep 19
Full

Hourly Weather History & Observations

Time (CDT) Temp. Heat Index Dew Point Humidity Pressure Visibility Wind Dir Wind Speed Gust Speed Precip Events Conditions
12:08 AM 78.8 °F - 75.2 °F 89% 29.94 in 10.0 mi South 6.9 mph - N/A   Clear
12:28 AM 78.8 °F - 75.2 °F 89% 29.94 in 10.0 mi South 6.9 mph - N/A   Clear
12:48 AM 78.8 °F - 75.2 °F 89% 29.94 in 10.0 mi South 5.8 mph - N/A   Clear
1:08 AM 78.8 °F - 75.2 °F 89% 29.93 in 7.0 mi South 8.1 mph - N/A   Clear
1:28 AM 78.8 °F - 75.2 °F 89% 29.93 in 7.0 mi South 6.9 mph - N/A   Clear
1:48 AM 78.8 °F - 75.2 °F 89% 29.93 in 7.0 mi SSE 8.1 mph - N/A   Clear
2:08 AM 75.2 °F - 73.4 °F 94% 29.93 in 7.0 mi South 4.6 mph - N/A   Clear
2:28 AM 75.2 °F - 73.4 °F 94% 29.93 in 7.0 mi South 4.6 mph - N/A   Clear
2:48 AM 75.2 °F - 73.4 °F 94% 29.93 in 7.0 mi South 4.6 mph - N/A   Clear
3:08 AM 75.2 °F - 73.4 °F 94% 29.93 in 5.0 mi South 5.8 mph - N/A   Clear
3:28 AM 73.4 °F - 73.4 °F 100% 29.93 in 5.0 mi South 5.8 mph - N/A   Clear
3:48 AM 73.4 °F - 73.4 °F 100% 29.93 in 5.0 mi South 4.6 mph - N/A   Clear
4:08 AM 73.4 °F - 71.6 °F 94% 29.93 in 4.0 mi South 4.6 mph - N/A   Clear
4:28 AM 73.4 °F - 71.6 °F 94% 29.93 in 4.0 mi South 5.8 mph - N/A   Clear
4:48 AM 73.4 °F - 71.6 °F 94% 29.92 in 5.0 mi South 5.8 mph - N/A   Clear
5:08 AM 73.4 °F - 73.4 °F 100% 29.93 in 5.0 mi South 6.9 mph - N/A   Clear
5:28 AM 73.4 °F - 71.6 °F 94% 29.92 in 5.0 mi South 5.8 mph - N/A   Clear
5:48 AM 73.4 °F - 71.6 °F 94% 29.92 in 5.0 mi South 5.8 mph - N/A   Clear
6:08 AM 73.4 °F - 71.6 °F 94% 29.93 in 5.0 mi South 5.8 mph - N/A   Clear
6:28 AM 71.6 °F - 71.6 °F 100% 29.93 in 5.0 mi SSE 5.8 mph - N/A   Clear
6:48 AM 73.4 °F - 71.6 °F 94% 29.93 in 4.0 mi South 5.8 mph - N/A   Clear
7:08 AM 73.4 °F - 71.6 °F 94% 29.93 in 5.0 mi SSE 4.6 mph - N/A   Clear
7:28 AM 75.2 °F - 73.4 °F 94% 29.93 in 5.0 mi South 5.8 mph - N/A   Clear
7:48 AM 75.2 °F - 73.4 °F 94% 29.93 in 7.0 mi South 4.6 mph - N/A   Clear
8:08 AM 78.8 °F - 73.4 °F 83% 29.93 in 7.0 mi SSE 4.6 mph - N/A   Clear
8:28 AM 78.8 °F - 75.2 °F 89% 29.93 in 10.0 mi SSE 4.6 mph - N/A   Clear
8:48 AM 80.6 °F 86.2 °F 75.2 °F 84% 29.93 in 10.0 mi South 5.8 mph - N/A   Clear
9:08 AM 82.4 °F 89.5 °F 75.2 °F 79% 29.92 in 10.0 mi SSE 4.6 mph - N/A   Clear
9:28 AM 82.4 °F 89.5 °F 75.2 °F 79% 29.92 in 10.0 mi SSE 4.6 mph - N/A   Clear
9:48 AM 84.2 °F 92.3 °F 75.2 °F 74% 29.92 in 10.0 mi South 5.8 mph - N/A   Clear
10:08 AM 84.2 °F 90.9 °F 73.4 °F 70% 29.92 in 10.0 mi SSE 5.8 mph - N/A   Clear
10:28 AM 86.0 °F 95.1 °F 75.2 °F 70% 29.91 in 10.0 mi SE 5.8 mph - N/A   Clear
10:48 AM 87.8 °F 95.6 °F 73.4 °F 62% 29.91 in 10.0 mi SSE 8.1 mph - N/A   Clear
11:08 AM 87.8 °F 95.6 °F 73.4 °F 62% 29.91 in 10.0 mi SSE 4.6 mph - N/A   Clear
11:28 AM 87.8 °F 95.6 °F 73.4 °F 62% 29.91 in 10.0 mi South 3.5 mph - N/A   Clear
11:48 AM 89.6 °F 98.2 °F 73.4 °F 59% 29.90 in 10.0 mi South 6.9 mph - N/A   Clear
12:08 PM 89.6 °F 98.2 °F 73.4 °F 59% 29.90 in 10.0 mi SE 8.1 mph - N/A   Clear
12:28 PM 89.6 °F 98.2 °F 73.4 °F 59% 29.90 in 10.0 mi SSE 8.1 mph - N/A   Clear
12:48 PM 89.6 °F 98.2 °F 73.4 °F 59% 29.89 in 10.0 mi SSE 9.2 mph - N/A   Clear
1:08 PM 89.6 °F 98.2 °F 73.4 °F 59% 29.89 in 10.0 mi SE 9.2 mph - N/A   Clear
1:28 PM 89.6 °F 98.2 °F 73.4 °F 59% 29.88 in 10.0 mi SSE 12.7 mph 17.3 mph N/A   Clear
1:48 PM 91.4 °F 102.5 °F 75.2 °F 59% 29.88 in 10.0 mi SSE 12.7 mph 17.3 mph N/A   Clear
2:08 PM 91.4 °F 100.1 °F 73.4 °F 55% 29.87 in 10.0 mi SE 12.7 mph 16.1 mph N/A   Clear
2:28 PM 91.4 °F 100.1 °F 73.4 °F 55% 29.87 in 10.0 mi SSE 10.4 mph 18.4 mph N/A   Clear
2:48 PM 91.4 °F 100.1 °F 73.4 °F 55% 29.86 in 10.0 mi SSE 15.0 mph - N/A   Clear
3:08 PM 91.4 °F 100.1 °F 73.4 °F 55% 29.85 in 10.0 mi SSE 12.7 mph 17.3 mph N/A   Clear
3:28 PM 91.4 °F 102.5 °F 75.2 °F 59% 29.85 in 10.0 mi SSE 12.7 mph 18.4 mph N/A   Clear
3:48 PM 91.4 °F 102.5 °F 75.2 °F 59% 29.83 in 10.0 mi SSE 12.7 mph - N/A   Clear
4:08 PM 89.6 °F 99.8 °F 75.2 °F 62% 29.83 in 10.0 mi South 15.0 mph 19.6 mph N/A   Clear
4:28 PM 91.4 °F 102.5 °F 75.2 °F 59% 29.82 in 10.0 mi South 15.0 mph 21.9 mph N/A   Clear
4:48 PM 91.4 °F 102.5 °F 75.2 °F 59% 29.82 in 10.0 mi South 13.8 mph - N/A   Clear
5:08 PM 91.4 °F 102.5 °F 75.2 °F 59% 29.82 in 10.0 mi South 13.8 mph - N/A   Clear
5:28 PM 91.4 °F 102.5 °F 75.2 °F 59% 29.81 in 10.0 mi South 13.8 mph - N/A   Clear
5:48 PM 91.4 °F 102.5 °F 75.2 °F 59% 29.80 in 10.0 mi South 13.8 mph - N/A   Clear
6:08 PM 89.6 °F 99.8 °F 75.2 °F 62% 29.80 in 10.0 mi South 11.5 mph - N/A   Clear
6:28 PM 87.8 °F 97.6 °F 75.2 °F 66% 29.80 in 10.0 mi SSW 10.4 mph - N/A   Clear
6:48 PM 87.8 °F 97.6 °F 75.2 °F 66% 29.80 in 10.0 mi SSW 11.5 mph - N/A   Clear
7:08 PM 87.8 °F 97.6 °F 75.2 °F 66% 29.81 in 10.0 mi SSW 5.8 mph - N/A Thunderstorm Clear
7:28 PM 84.2 °F 92.3 °F 75.2 °F 74% 29.82 in 10.0 mi Calm Calm - N/A   Clear
7:48 PM 84.2 °F 92.3 °F 75.2 °F 74% 29.82 in 10.0 mi SE 3.5 mph - N/A   Clear
8:08 PM 82.4 °F 89.5 °F 75.2 °F 79% 29.82 in 10.0 mi ESE 4.6 mph - N/A   Clear
8:28 PM 80.6 °F 86.2 °F 75.2 °F 84% 29.83 in 10.0 mi SE 5.8 mph - N/A   Clear
8:48 PM 78.8 °F - 75.2 °F 89% 29.83 in 10.0 mi SE 5.8 mph - N/A   Clear
9:08 PM 78.8 °F - 75.2 °F 89% 29.83 in 10.0 mi SE 4.6 mph - N/A   Clear
9:28 PM 78.8 °F - 75.2 °F 89% 29.82 in 10.0 mi SSE 5.8 mph - N/A   Clear
9:48 PM 78.8 °F - 75.2 °F 89% 29.83 in 7.0 mi SE 4.6 mph - N/A   Clear
10:08 PM 78.8 °F - 75.2 °F 89% 29.83 in 10.0 mi SSE 5.8 mph - N/A   Mostly Cloudy
10:28 PM 78.8 °F - 75.2 °F 89% 29.82 in 10.0 mi SSE 6.9 mph - N/A   Mostly Cloudy
10:48 PM 78.8 °F - 75.2 °F 89% 29.81 in 10.0 mi SSE 6.9 mph - N/A   Scattered Clouds
11:08 PM 78.8 °F - 75.2 °F 89% 29.81 in 10.0 mi South 5.8 mph - N/A   Clear
11:28 PM 80.6 °F 86.2 °F 75.2 °F 84% 29.82 in 10.0 mi South 4.6 mph - N/A   Clear
11:48 PM 78.8 °F - 75.2 °F 89% 29.81 in 10.0 mi South 5.8 mph - N/A   Clear